This demonstration page uses our WeatherBlox Daily Observations layout. Learn more.

Left ArrowRight Arrow

39.01783, -85.05884

Hourly Observations for March 16, 2020

Temp ( °F °C ) Dew Point ( °F °C ) Humidity (%) Winds ( mph kmh ) Pressure ( in mb ) Visibility ( mi km ) Precip ( " mm )
12:52 am 00:52 Cloudy 42 5.6 32 0 68 68 NE 8 13 30.43 1031 10 16 0.00 0.00
1:52 am 01:52 Cloudy 41 5 31 -0.6 67 67 NE 9 15 30.40 1030 10 16 0.00 0.00
2:52 am 02:52 Cloudy 41 5 31 -0.6 67 67 NE 8 13 30.40 1029 10 16 0.00 0.00
3:52 am 03:52 Cloudy 40 4.4 31 -0.6 70 70 NE 9 15 30.37 1029 10 16 0.00 0.00
4:52 am 04:52 Cloudy 40 4.4 30 -1.1 68 68 NE 9 15 30.35 1028 10 16 0.00 0.00
5:52 am 05:52 Cloudy 39 3.9 30 -1.1 70 70 NNE 5 7 30.36 1028 10 16 0.00 0.00
6:52 am 06:52 Cloudy 39 3.9 29 -1.7 67 67 E 5 7 30.35 1028 10 16 0.00 0.00
7:52 am 07:52 Cloudy 39 3.9 29 -1.7 67 67 ENE 5 7 30.36 1028 10 16 0.00 0.00
8:52 am 08:52 Cloudy 39 3.9 30 -1.1 70 70 N 3 6 30.37 1028 10 16 0.00 0.00
9:52 am 09:52 Cloudy 41 5 30 -1.1 65 65 ENE 3 6 30.35 1028 10 16 0.00 0.00
10:52 am 10:52 Cloudy 42 5.6 32 0 68 68 ESE 6 9 30.34 1028 10 16 0.00 0.00
11:52 am 11:52 Cloudy 44 6.7 33 0.6 65 65 Calm 30.33 1027 10 16 0.00 0.00
12:52 pm 12:52 Cloudy 46 7.8 34 1.1 63 63 S 5 7 30.30 1026 10 16 0.00 0.00
1:05 pm 13:05 Cloudy 47 8.3 35 1.7 63 63 S 6 9 30.32 1027 10 16 0.00 0.00
1:41 pm 13:41 Cloudy 46 7.8 33 0.6 61 61 Calm 30.30 1026 10 16 0.00 0.00
1:52 pm 13:52 Cloudy 47 8.3 34 1.1 61 61 S 7 11 30.27 1025 10 16 0.00 0.00
2:52 pm 14:52 Cloudy 48 8.9 35 1.7 61 61 S 7 11 30.24 1024 10 16 0.00 0.00
3:52 pm 15:52 Cloudy 46 7.8 36 2.2 68 68 SSE 13 20 30.21 1023 10 16 0.00 0.00
4:20 pm 16:20 Cloudy 46 7.8 36 2.2 68 68 SSW 9 15 30.24 1024 10 16 0.00 0.00
4:52 pm 16:52 Cloudy 46 7.8 36 2.2 68 68 S 8 13 30.22 1023 10 16 0.00 0.00
5:47 pm 17:47 Cloudy 46 8 36 2 66 66 S 5 7 30.22 1023 10 16 0.00 0.00
5:52 pm 17:52 Cloudy 46 7.8 36 2.2 68 68 S 5 7 30.20 1023 10 16 0.00 0.00
6:52 pm 18:52 Cloudy 46 7.8 36 2.2 68 68 S 7 11 30.19 1022 10 16 0.00 0.00
7:52 pm 19:52 Cloudy 46 7.8 36 2.2 68 68 SSW 7 11 30.21 1023 10 16 0.00 0.00
8:52 pm 20:52 Cloudy 45 7.2 37 2.8 74 74 S 6 9 30.20 1023 10 16 0.00 0.00
9:52 pm 21:52 Cloudy with Light Rain 45 7.2 36 2.2 71 71 SSW 5 7 30.20 1023 10 16 0.00 0.00
10:52 pm 22:52 Cloudy 44 6.7 38 3.3 79 79 SSW 3 6 30.20 1023 10 16 0.00 0.00
11:52 pm 23:52 Cloudy 44 6.7 38 3.3 79 79 S 5 7 30.17 1022 10 16 0.00 0.00

Powered by AerisWeather